铱星星座 151星 (IRIDIUM 151)

导读

IRIDIUM 151是美国铱星通信公司运营的低轨通信卫星,隶属于铱星卫星系统。该系统原计划部署77颗卫星,以铱元素命名,现由66颗在轨卫星组成,可支持全球范围的手持终端语音与数据通信。卫星于2017年12月23日发射,运行在近极地轨道,目前已退役,为全球卫星通信网络提供过服务支撑。

基本信息
目录编号:
43074
目录名称:
IRIDIUM 151
国际标识:
2017-083E
轨道中心:
EARTH
卫星名称:
铱星星座 151星
卫星全名:
铱星星座 151星 (IRIDIUM 151)
卫星状态:
在轨 (已飞行3184 天)
发射日期:
2017-12-23 UTC
国别 :
美国 (US)
星等 :
--
轨道信息
数据来源 国际轨道数据 AOE轨道数据
星历时间 2026-09-10T21:18:35+0800
14小时前
查看轨道信息
2026-09-10T00:00:00+0800
1天前
查看轨道信息
半长轴 7155.805km 7155.806km
偏心率 0.0002067 0.0002122
轨道倾角 86.392° 86.392°
近地点辐角 91.337° 89.368°
升交点赤经 286.373° 286.745°
平近点角 268.806° 9.247°
近地点 776.188km 776.15km
远地点 779.148km 779.188km
周期 100.403分钟 100.403分钟
每日圈数 14.342175 14.342174
详细信息
平衡模式:
三轴稳定
覆盖范围:
全球
运营商:
铱星通信公司
运营商所在国:
美国
制造商(研发单位):
阿莱尼亚宇航公司
制造商所在国:
意大利
使用方式:
暂无
卫星简介
铱星(Iridium)是由共66个运作中的通信卫星组成的卫星通信系统。这个系统原本规划77个通信卫星,所以用原子序数为77的铱元素来命名。铱卫星允许人们使用手持型电子设备进行全球性的语音及数据通讯。该卫星仍在工作。
2D轨道图
3D轨道图
轨道高度分析图
轨道倾角分析图
轨道综合分析图
查看轨道综合分析图
交会数据列表
事件ID 空间交会对象 最接近时刻(TCA) 交会距离 交会风险概率(CRP) 交会风险指数(CRI) 操作
CDM_260909-005002-921104-307424
2026-09-09T
00:50:09+0000
2.513 km
极远距离
1.741215E-6 低风险 0.4
与全量物体交会距离演化趋势
与全量物体交会风险概率演化趋势